Location: ??????
(55.6361°N, 38.0803°E)
Time: 01:29:51
(UTC+00:00)

Cosmos 1072 Rocket - Pass Details

Date: 30 March 2020
Orbit: 950 x 1007 km, 82.9° (Epoch: 27 May)

Event Time Altitude Azimuth Distance (km) Brightness Sun altitude
Rises 00:10:12 0° 347° (NNW) 3,642 8.0 -22.3°
Reaches altitude 10° 00:12:43 10° 344° (NNW) 2,696 7.2 -22.0°
Maximum altitude 00:18:46 62° 266° (W) 1,083 4.5 -21.4°
Enters shadow 00:21:10 37° 202° (SSW) 1,467 4.9 -21.2°
